Vertical_Velocity
-1 -2 -1 -0 -4 -3 -1 -2 -4 -4 -2 -0 1 2 -3 -2 -0 -4 2 3 4 -9 1 4 -2 4 -3 0 -14 3 1 1 0 -4 5 -0 3 -1 -2 -3 -0 0 1 -3 0 1 -1
-0 -3 -3 0 -2 1 -3 -1 3 -2 -0 -7 -6 -4 3 -0 -1 -4 -7 -1 9 -6 0 0 4 3 -1 2 -10 -0 -4 -14 -1 3 -2 2 -1 0 2 -3 -1 -4 -3 -5 -0 1 -1
2 -0 1 -3 2 -1 2 1 -1 -1 -2 3 4 2 -3 -7 2 1 -2 -7 -0 9 -7 4 9 0 -0 -15 -3 2 -5 0 3 -2 -1 1 10 5 2 7 -1 0 -4 0 -2 -2 0
-0 -2 -2 -4 -4 -4 -2 -0 -2 1 -0 2 -1 -3 1 1 1 -3 -2 -3 -4 6 -3 0 12 0 -8 5 -2 -10 9 5 -1 5 10 3 6 2 5 5 1 -1 2 2 0 1 -0
3 -2 0 1 -0 2 -0 -3 1 1 -3 -2 1 -0 -2 -0 -3 1 -2 -3 -10 -1 13 -2 6 7 -6 -2 -5 -3 -2 -2 5 4 8 1 8 2 4 2 3 2 -1 1 -0 -2 0
-0 2 -2 -1 -0 -3 -0 -2 -2 -4 -1 -3 -2 3 0 1 1 -4 3 3 -3 2 -5 10 0 7 3 -3 3 -4 3 8 -1 5 5 4 4 2 5 7 -10 -3 1 2 -3 -2 5
-1 0 0 2 -1 1 0 -1 -1 1 1 1 -0 -3 -1 2 1 3 1 4 -1 3 5 -14 -1 -0 0 -4 -2 1 2 6 6 6 1 1 8 -5 -10 -4 0 -2 2 -1 -1 -0 3
-1 -1 -3 -2 -1 -3 -2 -0 1 -0 -1 0 1 -1 -5 -1 1 0 3 -2 3 -2 -6 -1 4 7 4 2 -1 -1 7 3 5 -2 5 10 -3 -8 -1 1 -1 1 -1 1 2 1 7
-3 -1 -4 2 2 -2 1 -4 -0 -4 -1 -1 -0 4 -4 -0 -1 3 -2 2 8 7 4 -9 -2 -1 -8 5 -4 -3 -2 -3 -3 6 0 -4 -16 0 -1 2 2 0 -1 0 -1 2 2
1 -7 -6 -4 -1 -1 -2 -4 -3 -3 -2 3 -2 -7 -0 -6 3 1 4 -0 -1 5 5 -9 1 2 1 7 1 1 -3 1 5 -9 -1 -4 -1 -2 2 -1 -0 4 -2 -1 -0 4 3
-0 -3 -2 -3 -1 1 2 3 6 1 -4 -5 0 4 2 -2 -5 0 3 1 -0 6 6 2 3 9 2 -1 -6 8 -0 6 -2 -2 8 -7 1 2 4 -10 0 -1 -1 -2 -1 -0 2
1 1 -1 -1 -1 -1 -7 -6 -3 5 0 -4 -3 -3 -0 4 -3 1 1 4 -0 12 -14 2 0 -0 6 3 6 3 -2 2 0 -1 2 -1 0 1 -4 1 -1 -1 -1 -1 -0 -0 4
-3 -3 -6 -4 -2 -4 -7 1 -6 -4 1 -0 0 -6 2 -2 -3 1 -0 4 8 7 -4 0 -0 1 -1 -0 5 1 1 6 -3 4 4 3 1 1 -4 -5 5 3 6 2 5 4 -4
-1 -2 -4 -2 -4 -4 3 -7 3 -5 -6 4 -2 -1 -11 -8 6 4 0 11 14 -9 -4 1 -1 3 -2 -3 -1 4 3 5 3 2 -0 -4 11 -1 1 -2 -14 -4 -2 -5 -6 -2 -1
-3 1 -3 5 -3 -2 1 -0 -3 -2 1 2 -6 -10 -10 -7 -1 13 12 12 -16 -5 -6 -2 7 2 3 3 1 4 -1 -4 -6 -3 -0 1 6 2 0 0 -4 2 4 2 -3 1 3
-2 -2 3 0 1 3 1 -0 1 0 2 -2 -1 -8 -22 7 12 21 14 -14 -0 -1 -2 4 -4 -2 -2 -1 5 10 0 -10 -3 -3 1 -1 2 -0 2 1 1 3 -3 3 0 0 1
-4 -2 -1 2 -1 -1 0 1 -3 -2 -7 -7 -13 -5 -14 3 14 15 -1 -9 -3 -4 1 -0 -3 1 -4 -5 -2 -3 -10 2 1 3 1 -2 -5 8 4 0 -7 4 4 2 -0 3 -0
1 3 -1 -1 -1 2 -3 1 -4 -6 -3 -3 0 -1 5 12 20 -1 1 -3 -3 -5 6 0 2 0 -4 -1 0 2 -6 -3 -0 -8 -3 -3 -3 -1 -6 1 1 0 -2 -3 -1 1 1
-4 -10 4 -3 -4 -5 -5 -3 1 -4 1 3 2 -5 2 10 2 -2 -4 -4 1 8 -5 1 0 -1 -0 -2 -0 1 -0 0 -0 -1 -11 -5 2 1 7 5 4 1 -0 -1 -0 -1 -3
2 0 -0 2 -4 -2 5 -3 -1 -3 -3 0 5 -1 -4 10 9 9 3 -11 1 -3 -2 1 -1 2 1 2 1 -1 1 1 1 -0 2 2 0 -6 -13 -7 -8 3 3 1 -2 0 -3
1 -0 0 2 4 1 3 6 -3 -2 -0 2 3 -4 2 -5 -12 0 8 5 1 3 -1 7 3 0 -5 2 2 1 1 2 2 -0 0 -1 -2 1 1 0 0 -2 -3 0 1 -9 -1
-5 0 -1 -5 -1 -5 3 -5 -2 1 1 -0 6 6 -3 -6 -1 5 -4 -5 2 -8 5 -5 10 -4 1 -0 -13 -4 -5 -1 -7 6 0 1 2 -1 1 0 0 0 0 0 -0 0 2
1 -1 -3 -3 -3 2 2 3 -4 -3 13 5 -2 -5 20 -10 -3 9 -3 -4 -5 8 -9 -7 -8 3 7 -12 -1 1 1 -3 -5 -8 -1 -3 -3 0 1 -0 0 1 -9 -3 -1 0 -8
1 -2 2 -1 0 1 3 1 -4 -2 9 15 6 12 10 -12 7 3 2 7 0 -2 -0 -9 5 8 -3 2 -4 -7 -4 -2 -2 1 -2 -1 -1 -1 0 2 2 -0 -0 -3 -4 -4 0
-4 -3 2 9 2 -4 1 4 -1 -2 1 9 2 18 2 -3 5 -6 -4 5 -4 -3 2 1 1 -1 -6 -1 -1 2 0 2 2 1 -0 -0 -1 -1 -3 -1 1 2 -0 -3 -6 -5 -4
-6 1 -6 -2 4 0 -4 4 1 3 -2 10 -3 10 14 11 -14 20 8 6 5 -1 2 0 -0 6 2 -1 -1 -2 -2 -2 5 3 -0 -0 -1 -1 2 -0 -3 1 1 -1 0 -1 -2
-2 -4 3 -0 4 1 1 -1 2 2 -2 16 -12 13 14 11 -21 17 4 11 2 1 2 1 1 6 1 0 0 -1 1 -2 -3 -2 1 1 2 -2 0 -1 0 1 -0 -0 5 -2 0
-1 5 1 4 2 1 -0 -4 1 -1 -1 19 -13 6 17 3 -28 4 -0 6 1 3 4 -3 4 -2 1 2 -0 -0 -1 -1 -2 -3 -4 -6 -5 -1 1 2 -0 -1 1 3 2 3 -1
2 1 0 -1 -1 3 -2 -2 2 2 3 11 -6 8 8 24 -26 2 1 4 1 1 6 0 3 -0 1 -2 0 -0 0 1 -2 -0 0 1 -7 -9 0 2 2 1 1 1 -3 -4 3
Height
1558 1556 1554 1551 1549 1547 1544 1542 1538 1535 1532 1528 1525 1522 1520 1519 1519 1518 1517 1515 1510 1511 1509 1507 1505 1504 1506 1507 1505 1502 1501 1503 1506 1509 1510 1514 1515 1515 1513 1516 1521 1517 1521 1533 1535 1532 1531
1558 1555 1553 1550 1548 1546 1544 1541 1538 1535 1532 1528 1524 1520 1517 1515 1515 1514 1513 1514 1510 1509 1508 1507 1503 1503 1504 1506 1502 1502 1502 1502 1505 1507 1507 1513 1512 1513 1512 1512 1514 1511 1524 1535 1534 1531 1531
1559 1556 1552 1551 1547 1544 1541 1539 1536 1532 1530 1527 1523 1519 1515 1513 1512 1512 1511 1510 1510 1507 1508 1507 1503 1502 1500 1499 1499 1501 1500 1501 1504 1505 1508 1510 1512 1513 1510 1512 1515 1511 1528 1534 1530 1531 1529
1557 1555 1552 1549 1546 1543 1540 1537 1534 1531 1527 1525 1521 1517 1514 1511 1509 1508 1510 1508 1508 1505 1506 1506 1504 1500 1497 1494 1496 1500 1500 1500 1503 1506 1508 1508 1511 1513 1511 1510 1515 1519 1524 1532 1526 1527 1527
1554 1550 1549 1546 1544 1541 1538 1535 1532 1529 1525 1522 1519 1516 1512 1508 1506 1505 1504 1506 1505 1506 1503 1504 1504 1500 1493 1490 1492 1497 1499 1500 1501 1504 1504 1506 1510 1509 1511 1506 1512 1512 1510 1520 1517 1524 1527
1550 1546 1544 1541 1539 1536 1533 1531 1529 1526 1523 1519 1516 1514 1510 1507 1504 1502 1502 1501 1501 1504 1504 1503 1501 1504 1489 1485 1488 1493 1496 1499 1499 1501 1503 1505 1506 1502 1502 1497 1497 1497 1510 1516 1514 1518 1525
1548 1544 1541 1538 1534 1531 1528 1526 1524 1522 1519 1516 1513 1509 1507 1505 1502 1499 1500 1500 1501 1502 1499 1494 1489 1486 1481 1483 1486 1490 1493 1496 1498 1498 1494 1500 1498 1491 1488 1490 1493 1494 1501 1508 1510 1517 1516
1546 1543 1540 1537 1532 1527 1524 1520 1518 1516 1514 1512 1509 1506 1502 1501 1499 1497 1496 1495 1493 1493 1490 1486 1485 1485 1482 1480 1484 1488 1492 1494 1492 1490 1493 1499 1489 1485 1490 1497 1499 1499 1500 1506 1516 1517 1515
1544 1542 1538 1535 1530 1525 1521 1517 1512 1511 1508 1506 1504 1502 1499 1496 1494 1493 1492 1493 1491 1490 1487 1476 1472 1474 1478 1479 1479 1483 1487 1490 1487 1487 1488 1485 1481 1489 1491 1496 1498 1499 1495 1502 1500 1513 1513
1543 1539 1537 1533 1529 1523 1520 1516 1511 1506 1504 1501 1499 1498 1495 1493 1494 1491 1488 1488 1488 1489 1486 1466 1467 1467 1473 1472 1475 1478 1483 1487 1486 1484 1488 1484 1487 1485 1489 1489 1491 1496 1498 1499 1505 1501 1495
1541 1538 1535 1530 1525 1522 1518 1514 1509 1504 1499 1497 1494 1493 1492 1490 1490 1489 1489 1486 1487 1490 1483 1460 1464 1464 1467 1465 1464 1473 1479 1483 1479 1479 1484 1480 1484 1485 1484 1482 1489 1488 1499 1500 1503 1501 1501
1538 1535 1531 1527 1522 1517 1514 1512 1508 1502 1496 1492 1489 1487 1487 1485 1485 1486 1485 1486 1488 1489 1476 1457 1457 1463 1467 1465 1459 1468 1476 1481 1481 1481 1482 1481 1485 1484 1479 1491 1490 1496 1497 1502 1504 1501 1502
1536 1533 1529 1525 1521 1517 1512 1506 1503 1500 1494 1488 1483 1481 1482 1482 1482 1482 1483 1485 1486 1473 1450 1448 1450 1456 1460 1462 1459 1459 1467 1473 1468 1475 1474 1483 1482 1484 1484 1488 1496 1491 1486 1503 1507 1509 1494
1535 1531 1527 1522 1519 1515 1510 1503 1498 1493 1489 1482 1475 1473 1472 1472 1475 1478 1480 1482 1467 1433 1435 1442 1445 1449 1453 1456 1455 1452 1461 1463 1465 1462 1462 1469 1481 1478 1476 1475 1477 1483 1474 1481 1493 1491 1477
1534 1530 1526 1521 1516 1512 1507 1501 1494 1488 1482 1473 1468 1465 1461 1461 1468 1471 1477 1465 1425 1428 1425 1434 1442 1444 1447 1449 1452 1449 1445 1450 1448 1455 1447 1454 1462 1478 1479 1478 1474 1480 1482 1480 1489 1505 1485
1531 1527 1524 1519 1514 1509 1503 1497 1490 1483 1477 1469 1463 1457 1454 1451 1456 1462 1464 1433 1422 1421 1422 1425 1418 1423 1426 1435 1442 1440 1439 1428 1439 1444 1449 1446 1461 1477 1479 1478 1480 1475 1476 1482 1485 1493 1477
1529 1524 1519 1514 1509 1506 1499 1493 1487 1480 1474 1467 1462 1458 1450 1448 1451 1451 1432 1422 1422 1421 1421 1419 1411 1416 1416 1423 1426 1430 1422 1423 1422 1436 1445 1447 1448 1477 1478 1470 1463 1477 1473 1476 1471 1469 1457
1522 1519 1515 1511 1505 1501 1495 1490 1485 1479 1473 1467 1463 1460 1448 1447 1443 1433 1422 1420 1424 1420 1419 1417 1414 1411 1410 1414 1417 1420 1416 1411 1414 1421 1433 1441 1450 1463 1462 1472 1473 1466 1461 1460 1457 1474 1476
1518 1514 1511 1506 1501 1497 1492 1487 1483 1479 1474 1467 1461 1453 1441 1444 1437 1428 1420 1420 1419 1415 1413 1411 1405 1405 1409 1407 1411 1410 1412 1417 1418 1416 1417 1433 1440 1461 1467 1470 1472 1465 1462 1457 1469 1466 1471
1513 1509 1505 1501 1497 1493 1489 1484 1480 1476 1471 1466 1460 1451 1441 1437 1431 1427 1419 1413 1405 1407 1405 1404 1401 1403 1405 1406 1406 1403 1411 1418 1419 1419 1418 1420 1429 1420 1420 1423 1439 1455 1451 1456 1453 1464 1449
1508 1504 1499 1495 1492 1488 1485 1480 1476 1472 1468 1464 1457 1448 1443 1435 1426 1427 1425 1418 1397 1393 1395 1394 1396 1393 1391 1398 1403 1404 1409 1418 1420 1420 1421 1419 1427 1426 1436 1436 1436 1434 1436 1445 1452 1440 1451
1502 1497 1493 1490 1486 1483 1479 1476 1472 1468 1464 1461 1457 1449 1444 1437 1427 1419 1412 1399 1393 1387 1379 1380 1379 1382 1387 1385 1385 1397 1398 1405 1406 1419 1419 1423 1430 1438 1445 1442 1437 1436 1437 1438 1440 1442 1444
1496 1492 1488 1484 1481 1477 1474 1470 1467 1465 1462 1457 1454 1450 1445 1428 1422 1416 1405 1396 1393 1382 1371 1368 1369 1373 1378 1378 1383 1387 1389 1389 1395 1401 1409 1416 1430 1428 1426 1442 1440 1437 1429 1432 1433 1433 1438
1490 1486 1482 1478 1475 1471 1467 1464 1461 1459 1457 1455 1451 1446 1440 1423 1418 1409 1404 1401 1392 1377 1366 1360 1365 1366 1372 1377 1384 1392 1394 1395 1400 1406 1404 1407 1416 1424 1443 1442 1435 1413 1427 1424 1426 1429 1436
1485 1480 1477 1473 1469 1465 1461 1458 1455 1453 1452 1448 1445 1443 1437 1424 1416 1404 1401 1397 1382 1369 1360 1359 1361 1361 1367 1374 1385 1392 1397 1395 1406 1410 1410 1408 1404 1426 1424 1424 1420 1420 1426 1424 1424 1421 1430
1478 1474 1470 1466 1462 1459 1455 1452 1449 1447 1445 1442 1439 1437 1433 1423 1407 1403 1397 1390 1382 1371 1355 1354 1359 1359 1363 1369 1372 1375 1382 1381 1401 1410 1412 1411 1408 1405 1425 1410 1409 1403 1419 1422 1422 1417 1425
1472 1468 1463 1459 1455 1452 1448 1445 1442 1441 1439 1436 1431 1430 1427 1419 1406 1402 1396 1390 1386 1376 1362 1352 1359 1363 1362 1365 1365 1366 1371 1379 1389 1394 1404 1410 1410 1404 1407 1404 1406 1413 1418 1421 1418 1417 1426
1466 1462 1457 1453 1449 1445 1441 1438 1436 1434 1432 1430 1424 1423 1422 1411 1398 1395 1392 1386 1381 1377 1368 1356 1359 1361 1362 1362 1361 1366 1371 1378 1382 1387 1390 1395 1404 1407 1411 1408 1405 1417 1422 1416 1421 1426 1428
1460 1455 1451 1447 1442 1439 1435 1432 1430 1428 1425 1423 1418 1416 1412 1404 1393 1387 1381 1378 1377 1374 1371 1360 1353 1355 1357 1359 1367 1368 1373 1381 1378 1384 1395 1396 1392 1397 1401 1403 1419 1420 1421 1421 1423 1425 1433